Location: Ash Swamp
(41.5170°N, 74.6157°W)
Time: 02:42:02
(UTC+00:00)

GP-B - Pass Details

Date: 14 July 2020
Orbit: 631 x 635 km, 89.8° (Epoch: 14 August)

Event Time Altitude Azimuth Distance (km) Brightness Sun altitude
Rises 04:13:25 0° 357° (N) 2,937 7.8 -25.8°
Reaches altitude 10° 04:15:41 10° 352° (N) 2,024 6.7 -25.9°
Enters shadow 04:19:51 53° 285° (WNW) 776 3.6 -26.0°
